STARLINK-1364 (45589 NORAD) Tracking and Keplerian Element Data

This shows tracking and keplerian element data for the satellite.

Feedback or suggestion? Click here.




ElementValue
Catalog45589
NameSTARLINK-1364
Epoch Orbit183
Epoch Day188.91667824
Epoch Year2020
RAAN30.3822
Inclination52.9978
Eccentricity0.0001497
Argument of Perigee24.0528
Mean Anonmoly339.9523
Mean Motion15.62735468
Decay Rate0.00026188
L11 45589U 20025BL 20188.91667824 .00026188 00000-0 29110-3 0 9993
L22 45589 52.9978 30.3822 0001497 24.0528 339.9523 15.62735468 1836

Live tracking and technical data element details for STARLINK-1364 (NORAD 45589). STARLINK-1364 can be tracked NOW for your location showing map with azimuth and elevation plus other details from your city location.

Track the satellite on the map from your city or location and see movement details for azimuth, elevation, latitude, longitude, range, height, and movement on the map or in text.







IsCatalogInMostPopularTable: catalog: 45589, numindb: 27
Update: records affected: 1



GetName: 45589 STARLINK-1364

Hit Count: updated at: Wed, 08 Jul 2020 03:27:28 GMT